,,PressureMeas_1m,,PRMeasQMR101_1,,RHStat155_1m_1,,SRMeasQMS101R_1m,,TAStat155_1m_1,,GenWind_1,,GenWind_1,
2019-07-11, 00:00:06,VALID,918.423,VALID,0.0,VALID,97.838,VALID,-0.008,VALID,20.253,VALID,63.0,VALID,0.0,
2019-07-11, 00:01:06,VALID,918.403,VALID,0.0,VALID,97.624,VALID,-0.003,VALID,20.226,VALID,104.0,VALID,0.0,
2019-07-11, 00:02:06,VALID,918.384,VALID,0.0,VALID,97.425,VALID,-0.006,VALID,20.235,VALID,134.0,VALID,0.0,
2019-07-11, 00:03:06,VALID,918.38,VALID,0.0,VALID,96.537,VALID,-0.027,VALID,20.315,INVALID,360.0,VALID,0.0,
2019-07-11, 00:04:06,VALID,918.366,VALID,0.0,VALID,95.637,VALID,-0.044,VALID,20.457,INVALID,360.0,VALID,0.0,
2019-07-11, 00:05:06,VALID,918.362,VALID,0.0,VALID,95.375,VALID,-0.027,VALID,20.432,INVALID,360.0,VALID,0.0,
2019-07-11, 00:06:06,VALID,918.347,VALID,0.0,VALID,95.72,VALID,-0.038,VALID,20.37,INVALID,360.0,VALID,0.0,
2019-07-11, 00:07:06,VALID,918.333,VALID,0.0,VALID,96.159,VALID,-0.035,VALID,20.325,INVALID,360.0,VALID,0.0,
2019-07-11, 00:08:06,VALID,918.286,VALID,0.0,VALID,96.631,VALID,-0.031,VALID,20.273,VALID,45.0,VALID,0.0,
2019-07-11, 00:09:06,VALID,918.285,VALID,0.0,VALID,96.782,VALID,-0.044,VALID,20.259,VALID,45.0,VALID,0.0,
2019-07-11, 00:10:06,VALID,918.255,VALID,0.0,VALID,96.898,VALID,-0.036,VALID,20.271,VALID,45.0,VALID,0.0,
2019-07-11, 00:11:06,VALID,918.235,VALID,0.0,VALID,96.413,VALID,-0.03,VALID,20.309,VALID,45.0,VALID,0.0,
2019-07-11, 00:12:06,VALID,918.203,VALID,0.0,VALID,96.23,VALID,-0.031,VALID,20.382,INVALID,360.0,VALID,0.0,
2019-07-11, 00:13:06,VALID,918.186,VALID,0.0,VALID,96.341,VALID,-0.029,VALID,20.421,INVALID,360.0,VALID,0.0,
2019-07-11, 00:14:06,VALID,918.179,VALID,0.0,VALID,96.254,VALID,-0.02,VALID,20.429,VALID,128.0,VALID,0.0,
2019-07-11, 00:15:06,VALID,918.176,VALID,0.0,VALID,95.663,VALID,-0.029,VALID,20.422,VALID,150.0,VALID,0.0,
2019-07-11, 00:16:06,VALID,918.174,VALID,0.0,VALID,94.736,VALID,-0.01,VALID,20.456,VALID,117.0,VALID,0.0,
2019-07-11, 00:17:06,VALID,918.153,VALID,0.0,VALID,93.728,VALID,-0.023,VALID,20.441,VALID,179.0,VALID,0.0,
2019-07-11, 00:18:06,VALID,918.153,VALID,0.0,VALID,92.688,VALID,0.011,VALID,20.591,VALID,176.0,VALID,0.0,
2019-07-11, 00:19:06,VALID,918.146,VALID,0.0,VALID,92.334,VALID,0.005,VALID,20.708,VALID,161.0,VALID,0.0,
2019-07-11, 00:20:06,VALID,918.157,VALID,0.0,VALID,92.285,VALID,0.006,VALID,20.729,VALID,176.0,VALID,0.0,
2019-07-11, 00:21:06,VALID,918.162,VALID,0.0,VALID,92.22,VALID,0.001,VALID,20.698,VALID,155.0,VALID,0.0,
2019-07-11, 00:22:06,VALID,918.177,VALID,0.0,VALID,91.884,VALID,0.005,VALID,20.543,VALID,91.0,VALID,0.0,
2019-07-11, 00:23:06,VALID,918.165,VALID,0.0,VALID,92.702,VALID,0.011,VALID,20.405,VALID,92.0,VALID,0.0,
2019-07-11, 00:24:06,VALID,918.172,VALID,0.0,VALID,93.35,VALID,0.003,VALID,20.304,VALID,71.0,VALID,0.0,
2019-07-11, 00:25:06,VALID,918.155,VALID,0.0,VALID,94.103,VALID,0.019,VALID,20.141,VALID,57.0,VALID,0.0,
2019-07-11, 00:26:06,VALID,918.147,VALID,0.0,VALID,94.99,VALID,0.01,VALID,20.019,VALID,48.0,VALID,0.0,
2019-07-11, 00:27:06,VALID,918.13,VALID,0.0,VALID,95.474,VALID,-0.009,VALID,19.942,VALID,47.0,VALID,0.0,
2019-07-11, 00:28:06,VALID,918.114,VALID,0.0,VALID,96.084,VALID,0.004,VALID,19.964,VALID,47.0,VALID,0.0,
2019-07-11, 00:29:06,VALID,918.103,VALID,0.0,VALID,96.255,VALID,0.003,VALID,19.992,VALID,47.0,VALID,0.0,
2019-07-11, 00:30:06,VALID,918.072,VALID,0.0,VALID,96.005,VALID,0.015,VALID,20.007,VALID,47.0,VALID,0.0,
2019-07-11, 00:31:06,VALID,918.092,VALID,0.0,VALID,94.895,VALID,0.016,VALID,20.114,VALID,66.0,VALID,0.0,
2019-07-11, 00:32:06,VALID,918.1,VALID,0.0,VALID,94.339,VALID,-0.011,VALID,20.159,VALID,102.0,VALID,0.0,
2019-07-11, 00:33:06,VALID,918.097,VALID,0.0,VALID,94.163,VALID,-0.025,VALID,20.143,VALID,111.0,VALID,0.0,
2019-07-11, 00:34:06,VALID,918.103,VALID,0.0,VALID,94.56,VALID,-0.01,VALID,20.152,VALID,115.0,VALID,0.0,
2019-07-11, 00:35:06,VALID,918.081,VALID,0.0,VALID,94.466,VALID,-0.014,VALID,20.22,VALID,140.0,VALID,0.0,
2019-07-11, 00:36:06,VALID,918.094,VALID,0.0,VALID,93.276,VALID,-0.016,VALID,20.35,VALID,154.0,VALID,0.0,
2019-07-11, 00:37:06,VALID,918.088,VALID,0.0,VALID,92.458,VALID,-0.009,VALID,20.476,VALID,175.0,VALID,0.0,
2019-07-11, 00:38:06,VALID,918.088,VALID,0.0,VALID,91.187,VALID,-0.017,VALID,20.563,VALID,128.0,VALID,0.0,
2019-07-11, 00:39:06,VALID,918.096,VALID,0.0,VALID,90.663,VALID,-0.021,VALID,20.532,VALID,105.0,VALID,0.0,
2019-07-11, 00:40:06,VALID,918.102,VALID,0.0,VALID,91.143,VALID,0.0,VALID,20.52,VALID,144.0,VALID,0.0,
2019-07-11, 00:41:06,VALID,918.11,VALID,0.0,VALID,90.827,VALID,-0.014,VALID,20.597,VALID,177.0,VALID,0.0,
2019-07-11, 00:42:06,VALID,918.121,VALID,0.0,VALID,90.005,VALID,-0.02,VALID,20.732,VALID,148.0,VALID,0.0,
2019-07-11, 00:43:06,VALID,918.143,VALID,0.0,VALID,89.861,VALID,-0.017,VALID,20.743,VALID,169.0,VALID,0.0,
2019-07-11, 00:44:06,VALID,918.152,VALID,0.0,VALID,89.591,VALID,-0.009,VALID,20.752,VALID,174.0,VALID,0.0,
2019-07-11, 00:45:06,VALID,918.151,VALID,0.0,VALID,89.398,VALID,-0.009,VALID,20.81,VALID,174.0,VALID,0.0,
2019-07-11, 00:46:06,VALID,918.15,VALID,0.0,VALID,89.267,VALID,-0.016,VALID,20.806,VALID,174.0,VALID,0.0,
2019-07-11, 00:47:06,VALID,918.151,VALID,0.0,VALID,89.447,VALID,-0.005,VALID,20.816,VALID,176.0,VALID,0.0,
2019-07-11, 00:48:06,VALID,918.154,VALID,0.0,VALID,88.819,VALID,0.007,VALID,20.875,VALID,197.0,VALID,0.0,
2019-07-11, 00:49:06,VALID,918.172,VALID,0.0,VALID,87.595,VALID,0.017,VALID,21.017,VALID,213.0,VALID,0.0,
2019-07-11, 00:50:06,VALID,918.171,VALID,0.0,VALID,86.816,VALID,-0.002,VALID,21.148,VALID,223.0,VALID,0.0,
2019-07-11, 00:51:06,VALID,918.165,VALID,0.0,VALID,85.73,VALID,-0.002,VALID,21.258,VALID,227.0,VALID,0.0,
2019-07-11, 00:52:06,VALID,918.158,VALID,0.0,VALID,85.284,VALID,-0.003,VALID,21.3,VALID,137.0,VALID,0.0,
2019-07-11, 00:53:06,VALID,918.173,VALID,0.0,VALID,87.02,VALID,0.011,VALID,21.062,VALID,114.0,VALID,0.0,
2019-07-11, 00:54:06,VALID,918.184,VALID,0.0,VALID,88.319,VALID,0.01,VALID,20.751,VALID,108.0,VALID,0.0,
2019-07-11, 00:55:06,VALID,918.188,VALID,0.0,VALID,89.643,VALID,0.01,VALID,20.423,VALID,107.0,VALID,0.0,
2019-07-11, 00:56:06,VALID,918.18,VALID,0.0,VALID,91.213,VALID,0.018,VALID,20.248,VALID,102.0,VALID,0.0,
2019-07-11, 00:57:06,VALID,918.187,VALID,0.0,VALID,91.923,VALID,0.012,VALID,20.147,VALID,102.0,VALID,0.0,
2019-07-11, 00:58:06,VALID,918.205,VALID,0.0,VALID,92.545,VALID,0.012,VALID,19.983,VALID,106.0,VALID,0.0,
2019-07-11, 00:59:06,VALID,918.167,VALID,0.0,VALID,93.115,VALID,0.015,VALID,19.922,VALID,117.0,VALID,0.0,
2019-07-11, 01:00:06,VALID,918.154,VALID,0.0,VALID,92.985,VALID,0.021,VALID,20.016,VALID,129.0,VALID,0.0,
2019-07-11, 01:01:06,VALID,918.118,VALID,0.0,VALID,92.518,VALID,0.005,VALID,20.107,VALID,128.0,VALID,0.0,
2019-07-11, 01:02:06,VALID,918.102,VALID,0.0,VALID,91.92,VALID,0.017,VALID,20.222,VALID,128.0,VALID,0.0,
2019-07-11, 01:03:06,VALID,918.093,VALID,0.0,VALID,91.097,VALID,-0.005,VALID,20.37,VALID,132.0,VALID,0.0,
2019-07-11, 01:04:06,VALID,918.062,VALID,0.0,VALID,90.365,VALID,0.007,VALID,20.506,VALID,139.0,VALID,0.0,
2019-07-11, 01:05:06,VALID,918.049,VALID,0.0,VALID,89.598,VALID,-0.013,VALID,20.619,VALID,140.0,VALID,0.0,
2019-07-11, 01:06:06,VALID,918.045,VALID,0.0,VALID,89.326,VALID,-0.009,VALID,20.611,VALID,129.0,VALID,0.0,
2019-07-11, 01:07:06,VALID,918.043,VALID,0.0,VALID,90.403,VALID,-0.01,VALID,20.46,VALID,125.0,VALID,0.0,
2019-07-11, 01:08:06,VALID,918.036,VALID,0.0,VALID,91.044,VALID,-0.005,VALID,20.386,VALID,125.0,VALID,0.0,
2019-07-11, 01:09:06,VALID,918.007,VALID,0.0,VALID,91.006,VALID,-0.001,VALID,20.297,VALID,127.0,VALID,0.0,
2019-07-11, 01:10:06,VALID,917.996,VALID,0.0,VALID,91.335,VALID,-0.001,VALID,20.22,VALID,127.0,VALID,0.0,
2019-07-11, 01:11:06,VALID,918.006,VALID,0.0,VALID,91.579,VALID,-0.005,VALID,20.114,VALID,102.0,VALID,0.0,
2019-07-11, 01:12:06,VALID,917.963,VALID,0.0,VALID,92.386,VALID,-0.009,VALID,20.038,VALID,96.0,VALID,0.0,
2019-07-11, 01:13:06,VALID,917.937,VALID,0.0,VALID,93.035,VALID,-0.011,VALID,19.995,VALID,82.0,VALID,0.0,
2019-07-11, 01:14:06,VALID,917.923,VALID,0.0,VALID,92.987,VALID,-0.009,VALID,19.917,VALID,87.0,VALID,0.0,
2019-07-11, 01:15:06,VALID,917.893,VALID,0.0,VALID,93.55,VALID,-0.003,VALID,19.875,VALID,90.0,VALID,0.0,
2019-07-11, 01:16:06,VALID,917.866,VALID,0.0,VALID,93.805,VALID,-0.01,VALID,19.871,VALID,90.0,VALID,0.0,
2019-07-11, 01:17:06,VALID,917.864,VALID,0.0,VALID,93.697,VALID,-0.007,VALID,19.833,VALID,89.0,VALID,0.0,
2019-07-11, 01:18:06,VALID,917.867,VALID,0.0,VALID,94.031,VALID,0.011,VALID,19.795,VALID,90.0,VALID,0.0,
2019-07-11, 01:19:06,VALID,917.858,VALID,0.0,VALID,94.107,VALID,0.007,VALID,19.748,VALID,103.0,VALID,0.0,
2019-07-11, 01:20:06,VALID,917.837,VALID,0.0,VALID,94.361,VALID,0.01,VALID,19.692,VALID,81.0,VALID,0.0,
2019-07-11, 01:21:06,VALID,917.82,VALID,0.0,VALID,94.614,VALID,0.022,VALID,19.676,VALID,95.0,VALID,0.0,
2019-07-11, 01:22:06,VALID,917.802,VALID,0.0,VALID,93.97,VALID,0.025,VALID,19.581,VALID,125.0,VALID,0.0,
2019-07-11, 01:23:06,VALID,917.769,VALID,0.0,VALID,94.677,VALID,0.013,VALID,19.544,VALID,128.0,VALID,0.0,
2019-07-11, 01:24:06,VALID,917.749,VALID,0.0,VALID,95.571,VALID,0.026,VALID,19.56,VALID,116.0,VALID,0.0,
2019-07-11, 01:25:06,VALID,917.755,VALID,0.0,VALID,95.393,VALID,0.012,VALID,19.506,VALID,92.0,VALID,0.0,
2019-07-11, 01:26:06,VALID,917.726,VALID,0.0,VALID,95.907,VALID,0.022,VALID,19.534,VALID,90.0,VALID,0.0,
2019-07-11, 01:27:06,VALID,917.691,VALID,0.0,VALID,96.207,VALID,0.01,VALID,19.586,VALID,111.0,VALID,0.0,
2019-07-11, 01:28:06,VALID,917.67,VALID,0.0,VALID,95.645,VALID,0.017,VALID,19.56,VALID,128.0,VALID,0.0,
2019-07-11, 01:29:06,VALID,917.65,VALID,0.0,VALID,95.796,VALID,0.015,VALID,19.553,VALID,126.0,VALID,0.0,
2019-07-11, 01:30:06,VALID,917.648,VALID,0.0,VALID,95.803,VALID,0.035,VALID,19.513,VALID,95.0,VALID,0.0,
2019-07-11, 01:31:06,VALID,917.639,VALID,0.0,VALID,95.475,VALID,0.024,VALID,19.45,VALID,88.0,VALID,0.0,
2019-07-11, 01:32:06,VALID,917.609,VALID,0.0,VALID,96.404,VALID,0.034,VALID,19.476,VALID,81.0,VALID,0.0,
2019-07-11, 01:33:06,VALID,917.586,VALID,0.0,VALID,96.582,VALID,-0.024,VALID,19.442,VALID,82.0,VALID,0.0,
2019-07-11, 01:34:06,VALID,917.546,VALID,0.0,VALID,96.512,VALID,-0.019,VALID,19.399,VALID,90.0,VALID,0.0,
2019-07-11, 01:35:06,VALID,917.527,VALID,0.0,VALID,97.197,VALID,-0.023,VALID,19.373,VALID,107.0,VALID,0.0,
2019-07-11, 01:36:06,VALID,917.484,VALID,0.0,VALID,97.654,VALID,-0.01,VALID,19.323,VALID,109.0,VALID,0.0,
2019-07-11, 01:37:06,VALID,917.433,VALID,0.0,VALID,97.916,VALID,-0.041,VALID,19.237,VALID,113.0,VALID,0.0,
2019-07-11, 01:38:06,VALID,917.408,VALID,0.0,VALID,98.207,VALID,-0.023,VALID,19.228,VALID,120.0,VALID,0.0,
2019-07-11, 01:39:06,VALID,917.387,VALID,0.0,VALID,98.568,VALID,0.016,VALID,19.287,VALID,115.0,VALID,0.0,
2019-07-11, 01:40:06,VALID,917.328,VALID,0.0,VALID,98.592,VALID,0.016,VALID,19.29,VALID,115.0,VALID,0.0,
2019-07-11, 01:41:06,VALID,917.313,VALID,0.0,VALID,98.544,VALID,0.019,VALID,19.327,VALID,130.0,VALID,0.0,
2019-07-11, 01:42:06,VALID,917.269,VALID,0.0,VALID,98.333,VALID,0.034,VALID,19.427,VALID,128.0,VALID,0.0,
2019-07-11, 01:43:06,VALID,917.239,VALID,0.0,VALID,97.953,VALID,0.02,VALID,19.533,VALID,133.0,VALID,0.0,
2019-07-11, 01:44:06,VALID,917.199,VALID,0.0,VALID,97.497,VALID,0.014,VALID,19.59,VALID,133.0,VALID,0.0,
2019-07-11, 01:45:06,VALID,917.192,VALID,0.0,VALID,96.877,VALID,0.019,VALID,19.714,VALID,141.0,VALID,0.0,
2019-07-11, 01:46:06,VALID,917.158,VALID,0.0,VALID,96.202,VALID,-0.004,VALID,19.759,VALID,120.0,VALID,0.0,
2019-07-11, 01:47:06,VALID,917.162,VALID,0.0,VALID,94.572,VALID,0.012,VALID,19.91,VALID,119.0,VALID,0.0,
2019-07-11, 01:48:06,VALID,917.126,VALID,0.0,VALID,93.96,VALID,-0.016,VALID,20.0,VALID,118.0,VALID,0.0,
2019-07-11, 01:49:06,VALID,917.104,VALID,0.0,VALID,93.56,VALID,-0.024,VALID,20.023,VALID,137.0,VALID,0.0,
2019-07-11, 01:50:06,VALID,917.102,VALID,0.0,VALID,93.075,VALID,-0.007,VALID,20.066,VALID,130.0,VALID,0.0,
2019-07-11, 01:51:06,VALID,917.091,VALID,0.0,VALID,92.514,VALID,-0.024,VALID,20.124,VALID,161.0,VALID,0.0,
2019-07-11, 01:52:06,VALID,917.077,VALID,0.0,VALID,91.792,VALID,-0.031,VALID,20.191,VALID,125.0,VALID,0.0,
2019-07-11, 01:53:06,VALID,917.077,VALID,0.0,VALID,91.368,VALID,-0.017,VALID,20.227,VALID,110.0,VALID,0.0,
2019-07-11, 01:54:06,VALID,917.064,VALID,0.0,VALID,90.807,VALID,-0.026,VALID,20.274,VALID,157.0,VALID,0.0,
2019-07-11, 01:55:06,VALID,917.085,VALID,0.0,VALID,90.268,VALID,-0.025,VALID,20.351,VALID,137.0,VALID,0.0,
2019-07-11, 01:56:06,VALID,917.052,VALID,0.0,VALID,89.315,VALID,-0.014,VALID,20.449,VALID,123.0,VALID,0.0,
2019-07-11, 01:57:06,VALID,917.012,VALID,0.0,VALID,88.065,VALID,-0.015,VALID,20.64,VALID,152.0,VALID,0.0,
2019-07-11, 01:58:06,VALID,917.008,VALID,0.0,VALID,87.735,VALID,-0.011,VALID,20.7,VALID,126.0,VALID,0.0,
2019-07-11, 01:59:06,VALID,916.992,VALID,0.0,VALID,87.115,VALID,-0.027,VALID,20.722,VALID,147.0,VALID,0.0,
2019-07-11, 02:00:06,VALID,916.975,VALID,0.0,VALID,86.406,VALID,-0.015,VALID,20.795,VALID,140.0,VALID,0.0,
2019-07-11, 02:01:06,VALID,916.973,VALID,0.0,VALID,86.384,VALID,-0.025,VALID,20.818,VALID,146.0,VALID,0.0,
2019-07-11, 02:02:06,VALID,916.928,VALID,0.0,VALID,85.636,VALID,-0.021,VALID,20.91,VALID,140.0,VALID,0.0,
2019-07-11, 02:03:06,VALID,916.93,VALID,0.0,VALID,85.163,VALID,0.023,VALID,20.964,VALID,137.0,VALID,0.0,
2019-07-11, 02:04:06,VALID,916.92,VALID,0.0,VALID,84.218,VALID,0.025,VALID,21.076,VALID,154.0,VALID,0.0,
2019-07-11, 02:05:06,VALID,916.883,VALID,0.0,VALID,84.077,VALID,0.021,VALID,21.141,VALID,157.0,VALID,0.0,
2019-07-11, 02:06:06,VALID,916.871,VALID,0.0,VALID,84.413,VALID,0.017,VALID,21.118,VALID,175.0,VALID,0.0,
2019-07-11, 02:07:06,VALID,916.858,VALID,0.0,VALID,84.521,VALID,-0.001,VALID,21.059,VALID,135.0,VALID,0.0,
2019-07-11, 02:08:06,VALID,916.854,VALID,0.0,VALID,84.744,VALID,0.01,VALID,20.99,VALID,131.0,VALID,0.0,
2019-07-11, 02:09:06,VALID,916.821,VALID,0.0,VALID,85.364,VALID,0.025,VALID,20.907,VALID,171.0,VALID,0.0,
2019-07-11, 02:10:06,VALID,916.81,VALID,0.0,VALID,85.493,VALID,0.018,VALID,20.834,VALID,171.0,VALID,0.0,
2019-07-11, 02:11:06,VALID,916.827,VALID,0.0,VALID,85.048,VALID,0.023,VALID,20.861,VALID,164.0,VALID,0.0,
2019-07-11, 02:12:06,VALID,916.816,VALID,0.0,VALID,84.701,VALID,-0.001,VALID,20.923,VALID,170.0,VALID,0.0,
2019-07-11, 02:13:06,VALID,916.826,VALID,0.0,VALID,84.552,VALID,0.013,VALID,20.914,VALID,157.0,VALID,0.0,
2019-07-11, 02:14:06,VALID,916.823,VALID,0.0,VALID,84.372,VALID,0.007,VALID,20.939,VALID,166.0,VALID,0.0,
2019-07-11, 02:15:06,VALID,916.825,VALID,0.0,VALID,84.604,VALID,0.014,VALID,20.89,VALID,173.0,VALID,0.0,
2019-07-11, 02:16:06,VALID,916.801,VALID,0.0,VALID,84.166,VALID,0.001,VALID,20.894,VALID,165.0,VALID,0.0,
2019-07-11, 02:17:06,VALID,916.803,VALID,0.0,VALID,83.934,VALID,0.006,VALID,20.986,VALID,155.0,VALID,0.0,
2019-07-11, 02:18:06,VALID,916.749,VALID,0.0,VALID,83.55,VALID,-0.01,VALID,20.983,VALID,158.0,VALID,0.0,
2019-07-11, 02:19:06,VALID,916.714,VALID,0.0,VALID,82.653,VALID,-0.029,VALID,21.104,VALID,194.0,VALID,0.0,
2019-07-11, 02:20:06,VALID,916.695,VALID,0.0,VALID,82.761,VALID,-0.024,VALID,21.163,VALID,179.0,VALID,0.0,
2019-07-11, 02:21:06,VALID,916.706,VALID,0.0,VALID,83.301,VALID,-0.013,VALID,21.103,VALID,147.0,VALID,0.0,
2019-07-11, 02:22:06,VALID,916.682,VALID,0.0,VALID,84.115,VALID,-0.03,VALID,20.987,VALID,119.0,VALID,0.0,
2019-07-11, 02:23:06,VALID,916.676,VALID,0.0,VALID,84.856,VALID,-0.03,VALID,20.788,VALID,147.0,VALID,0.0,
2019-07-11, 02:24:06,VALID,916.672,VALID,0.0,VALID,84.749,VALID,-0.02,VALID,20.726,VALID,176.0,VALID,0.0,
2019-07-11, 02:25:06,VALID,916.666,VALID,0.0,VALID,84.574,VALID,-0.035,VALID,20.756,VALID,151.0,VALID,0.0,
2019-07-11, 02:26:06,VALID,916.638,VALID,0.0,VALID,84.266,VALID,-0.026,VALID,20.819,VALID,189.0,VALID,0.0,
2019-07-11, 02:27:06,VALID,916.642,VALID,0.0,VALID,84.022,VALID,-0.017,VALID,20.905,VALID,191.0,VALID,0.0,
2019-07-11, 02:28:06,VALID,916.681,VALID,0.0,VALID,83.957,VALID,-0.027,VALID,20.914,VALID,149.0,VALID,0.0,
2019-07-11, 02:29:06,VALID,916.68,VALID,0.0,VALID,83.968,VALID,-0.039,VALID,20.869,VALID,128.0,VALID,0.0,
2019-07-11, 02:30:06,VALID,916.644,VALID,0.0,VALID,83.713,VALID,-0.035,VALID,20.897,VALID,185.0,VALID,0.0,
2019-07-11, 02:31:06,VALID,916.695,VALID,0.0,VALID,83.795,VALID,-0.036,VALID,20.907,VALID,149.0,VALID,0.0,
2019-07-11, 02:32:06,VALID,916.689,VALID,0.0,VALID,83.991,VALID,-0.034,VALID,20.871,VALID,176.0,VALID,0.0,
2019-07-11, 02:33:06,VALID,916.671,VALID,0.0,VALID,83.921,VALID,0.013,VALID,20.849,VALID,170.0,VALID,0.0,
2019-07-11, 02:34:06,VALID,916.68,VALID,0.0,VALID,84.179,VALID,0.013,VALID,20.825,VALID,175.0,VALID,0.0,
2019-07-11, 02:35:06,VALID,916.71,VALID,0.0,VALID,84.218,VALID,0.013,VALID,20.78,VALID,159.0,VALID,0.0,
2019-07-11, 02:36:06,VALID,916.722,VALID,0.0,VALID,83.516,VALID,0.009,VALID,20.799,VALID,172.0,VALID,0.0,
2019-07-11, 02:37:06,VALID,916.69,VALID,0.0,VALID,82.713,VALID,0.001,VALID,20.953,VALID,175.0,VALID,0.0,
2019-07-11, 02:38:06,VALID,916.696,VALID,0.0,VALID,82.116,VALID,0.011,VALID,21.078,VALID,185.0,VALID,0.0,
2019-07-11, 02:39:06,VALID,916.717,VALID,0.0,VALID,82.427,VALID,0.001,VALID,21.064,VALID,184.0,VALID,0.0,
2019-07-11, 02:40:06,VALID,916.723,VALID,0.0,VALID,83.135,VALID,0.001,VALID,20.948,VALID,166.0,VALID,0.0,
2019-07-11, 02:41:06,VALID,916.725,VALID,0.0,VALID,83.012,VALID,0.0,VALID,20.886,VALID,179.0,VALID,0.0,
2019-07-11, 02:42:06,VALID,916.743,VALID,0.0,VALID,82.874,VALID,0.006,VALID,20.899,VALID,181.0,VALID,0.0,
2019-07-11, 02:43:06,VALID,916.77,VALID,0.0,VALID,82.529,VALID,0.007,VALID,20.975,VALID,179.0,VALID,0.0,
2019-07-11, 02:44:06,VALID,916.758,VALID,0.0,VALID,82.111,VALID,0.002,VALID,21.013,VALID,184.0,VALID,0.0,
2019-07-11, 02:45:06,VALID,916.766,VALID,0.0,VALID,80.903,VALID,-0.006,VALID,21.172,VALID,186.0,VALID,0.0,
2019-07-11, 02:46:06,VALID,916.762,VALID,0.0,VALID,80.383,VALID,-0.012,VALID,21.282,VALID,198.0,VALID,0.0,
2019-07-11, 02:47:06,VALID,916.759,VALID,0.0,VALID,79.976,VALID,-0.003,VALID,21.363,VALID,188.0,VALID,0.0,
2019-07-11, 02:48:06,VALID,916.755,VALID,0.0,VALID,79.971,VALID,-0.011,VALID,21.382,VALID,194.0,VALID,0.0,
2019-07-11, 02:49:06,VALID,916.755,VALID,0.0,VALID,79.718,VALID,0.001,VALID,21.401,VALID,175.0,VALID,0.0,
2019-07-11, 02:50:06,VALID,916.726,VALID,0.0,VALID,80.308,VALID,0.006,VALID,21.335,VALID,187.0,VALID,0.0,
2019-07-11, 02:51:06,VALID,916.756,VALID,0.0,VALID,80.574,VALID,0.01,VALID,21.252,VALID,145.0,VALID,0.0,
2019-07-11, 02:52:06,VALID,916.757,VALID,0.0,VALID,80.692,VALID,-0.006,VALID,21.203,VALID,160.0,VALID,0.0,
2019-07-11, 02:53:06,VALID,916.727,VALID,0.0,VALID,80.322,VALID,-0.0,VALID,21.237,VALID,190.0,VALID,0.0,
2019-07-11, 02:54:06,VALID,916.753,VALID,0.0,VALID,80.287,VALID,-0.014,VALID,21.265,VALID,190.0,VALID,0.0,
2019-07-11, 02:55:06,VALID,916.749,VALID,0.0,VALID,79.669,VALID,-0.0,VALID,21.336,VALID,190.0,VALID,0.0,
2019-07-11, 02:56:06,VALID,916.788,VALID,0.0,VALID,79.941,VALID,0.006,VALID,21.349,VALID,202.0,VALID,0.0,
2019-07-11, 02:57:06,VALID,916.797,VALID,0.0,VALID,80.057,VALID,-0.016,VALID,21.295,VALID,179.0,VALID,0.0,
2019-07-11, 02:58:06,VALID,916.839,VALID,0.0,VALID,79.864,VALID,-0.005,VALID,21.288,VALID,161.0,VALID,0.0,
2019-07-11, 02:59:06,VALID,916.83,VALID,0.0,VALID,80.309,VALID,0.001,VALID,21.274,VALID,238.0,VALID,0.0,
2019-07-11, 03:00:06,VALID,916.862,VALID,0.0,VALID,80.72,VALID,-0.02,VALID,21.177,VALID,223.0,VALID,0.0,
2019-07-11, 03:01:06,VALID,916.884,VALID,0.0,VALID,80.936,VALID,0.002,VALID,21.116,VALID,222.0,VALID,0.0,
2019-07-11, 03:02:06,VALID,916.881,VALID,0.0,VALID,80.904,VALID,-0.008,VALID,21.104,VALID,218.0,VALID,0.0,
2019-07-11, 03:03:06,VALID,916.892,VALID,0.0,VALID,81.373,VALID,-0.024,VALID,21.064,VALID,223.0,VALID,0.0,
2019-07-11, 03:04:06,VALID,916.885,VALID,0.0,VALID,81.646,VALID,-0.013,VALID,21.012,VALID,232.0,VALID,0.0,
2019-07-11, 03:05:06,VALID,916.935,VALID,0.0,VALID,82.422,VALID,-0.016,VALID,20.933,VALID,237.0,VALID,0.0,
2019-07-11, 03:06:06,VALID,916.941,VALID,0.0,VALID,83.004,VALID,-0.026,VALID,20.863,VALID,245.0,VALID,0.0,
2019-07-11, 03:07:06,VALID,916.966,VALID,0.0,VALID,84.011,VALID,-0.017,VALID,20.773,VALID,235.0,VALID,0.0,
2019-07-11, 03:08:06,VALID,916.989,VALID,0.0,VALID,85.344,VALID,-0.024,VALID,20.644,VALID,234.0,VALID,0.0,
2019-07-11, 03:09:06,VALID,917.014,VALID,0.0,VALID,85.756,VALID,-0.033,VALID,20.518,VALID,242.0,VALID,0.0,
2019-07-11, 03:10:06,VALID,917.045,VALID,0.0,VALID,86.887,VALID,-0.033,VALID,20.401,VALID,245.0,VALID,0.0,
2019-07-11, 03:11:06,VALID,917.054,VALID,0.0,VALID,88.048,VALID,-0.013,VALID,20.252,VALID,235.0,VALID,0.0,
2019-07-11, 03:12:06,VALID,917.037,VALID,0.0,VALID,89.214,VALID,-0.024,VALID,20.095,VALID,241.0,VALID,0.0,
2019-07-11, 03:13:06,VALID,917.065,VALID,0.0,VALID,89.397,VALID,-0.032,VALID,20.043,VALID,242.0,VALID,0.0,
2019-07-11, 03:14:06,VALID,917.098,VALID,0.0,VALID,89.245,VALID,-0.023,VALID,20.073,VALID,234.0,VALID,0.0,
2019-07-11, 03:15:06,VALID,917.122,VALID,0.0,VALID,89.015,VALID,-0.02,VALID,20.092,VALID,219.0,VALID,0.0,
2019-07-11, 03:16:06,VALID,917.09,VALID,0.0,VALID,87.501,VALID,-0.034,VALID,20.193,VALID,213.0,VALID,0.0,
2019-07-11, 03:17:06,VALID,917.095,VALID,0.0,VALID,86.155,VALID,-0.032,VALID,20.374,VALID,220.0,VALID,0.0,
2019-07-11, 03:18:06,VALID,917.111,VALID,0.0,VALID,85.417,VALID,-0.025,VALID,20.514,VALID,188.0,VALID,0.0,
2019-07-11, 03:19:06,VALID,917.094,VALID,0.0,VALID,84.165,VALID,-0.022,VALID,20.613,VALID,177.0,VALID,0.0,
2019-07-11, 03:20:06,VALID,917.094,VALID,0.0,VALID,83.799,VALID,0.002,VALID,20.727,VALID,191.0,VALID,0.0,
2019-07-11, 03:21:06,VALID,917.112,VALID,0.0,VALID,83.112,VALID,-0.0,VALID,20.789,VALID,192.0,VALID,0.0,
2019-07-11, 03:22:06,VALID,917.119,VALID,0.0,VALID,83.218,VALID,-0.006,VALID,20.813,VALID,175.0,VALID,0.0,
2019-07-11, 03:23:06,VALID,917.121,VALID,0.0,VALID,84.449,VALID,-0.002,VALID,20.638,VALID,165.0,VALID,0.0,
2019-07-11, 03:24:06,VALID,917.106,VALID,0.0,VALID,84.484,VALID,-0.016,VALID,20.541,VALID,166.0,VALID,0.0,
2019-07-11, 03:25:06,VALID,917.144,VALID,0.0,VALID,84.938,VALID,0.003,VALID,20.434,VALID,157.0,VALID,0.0,
2019-07-11, 03:26:06,VALID,917.122,VALID,0.0,VALID,83.579,VALID,0.009,VALID,20.525,VALID,165.0,VALID,0.0,
2019-07-11, 03:27:06,VALID,917.109,VALID,0.0,VALID,82.916,VALID,-0.008,VALID,20.736,VALID,174.0,VALID,0.0,
2019-07-11, 03:28:06,VALID,917.076,VALID,0.0,VALID,82.585,VALID,-0.013,VALID,20.82,VALID,170.0,VALID,0.0,
2019-07-11, 03:29:06,VALID,917.081,VALID,0.0,VALID,82.139,VALID,0.003,VALID,20.892,VALID,142.0,VALID,0.0,
2019-07-11, 03:30:06,VALID,917.089,VALID,0.0,VALID,82.513,VALID,0.01,VALID,20.834,VALID,83.0,VALID,0.0,
2019-07-11, 03:31:06,VALID,917.099,VALID,0.0,VALID,83.52,VALID,0.005,VALID,20.515,VALID,78.0,VALID,0.0,
2019-07-11, 03:32:06,VALID,917.112,VALID,0.0,VALID,84.316,VALID,-0.003,VALID,20.393,VALID,164.0,VALID,0.0,
2019-07-11, 03:33:06,VALID,917.123,VALID,0.0,VALID,83.773,VALID,-0.022,VALID,20.496,VALID,204.0,VALID,0.0,
2019-07-11, 03:34:06,VALID,917.137,VALID,0.0,VALID,82.97,VALID,-0.02,VALID,20.667,VALID,244.0,VALID,0.0,
2019-07-11, 03:35:06,VALID,917.176,VALID,0.0,VALID,81.042,VALID,-0.016,VALID,20.866,VALID,218.0,VALID,0.0,
2019-07-11, 03:36:06,VALID,917.18,VALID,0.0,VALID,78.934,VALID,-0.003,VALID,21.212,VALID,202.0,VALID,0.0,
2019-07-11, 03:37:06,VALID,917.19,VALID,0.0,VALID,78.569,VALID,-0.034,VALID,21.411,VALID,213.0,VALID,0.0,
2019-07-11, 03:38:06,VALID,917.228,VALID,0.0,VALID,78.784,VALID,-0.01,VALID,21.423,VALID,218.0,VALID,0.0,
2019-07-11, 03:39:06,VALID,917.251,VALID,0.0,VALID,78.895,VALID,-0.0,VALID,21.395,VALID,218.0,VALID,0.0,
2019-07-11, 03:40:06,VALID,917.275,VALID,0.0,VALID,79.559,VALID,0.0,VALID,21.317,VALID,247.0,VALID,0.0,
2019-07-11, 03:41:06,VALID,917.279,VALID,0.0,VALID,80.934,VALID,-0.007,VALID,21.177,VALID,282.0,VALID,0.0,
2019-07-11, 03:42:06,VALID,917.273,VALID,0.0,VALID,81.576,VALID,0.011,VALID,20.994,VALID,248.0,VALID,0.0,